Regional Weather Roundup
Issued by NWS

Home | Current Version | Previous Version | Graphics & Text | Print | Product List | Glossary Off
Versions: 1 2 3 4 5 6 7 8 9 10 11 12 13 14 15 16 17 18 19 20 21 22 23 24 25 26 27 28 29 30 31 32 33 34 35 36 37 38 39 40 41 42 43 44 45 46 47 48 49 50

000
ASUS43 KTOP 011959
RWRKS

WEATHER ROUNDUP FOR KANSAS
NATIONAL WEATHER SERVICE GOODLAND KS
300 PM CDT MON JUN 01 2015

NOTE:  "FAIR" INDICATES FEW OR NO CLOUDS BELOW 12,000 FEET WITH NO
SIGNIFICANT WEATHER AND/OR OBSTRUCTIONS TO VISIBILITY.

KSZ001>006-013>018-027>032-041>047-012100-
NORTHWEST KANSAS

CITY           SKY/WX    TMP DP  RH WIND       PRES   REMARKS
GOODLAND       SUNNY     83  59  44 SE12G22   30.02F
HAYS           CLOUDY    75  61  60 S16G22    30.04F
HILL CITY      PTSUNNY   79  61  53 S12G21    30.02F
RUSSELL        CLOUDY    74  61  63 SE18      30.04F
$$

KSZ061>065-074>080-084>089-012100-
SOUTHWEST KANSAS

CITY           SKY/WX    TMP DP  RH WIND       PRES   REMARKS
DODGE CITY     SUNNY     80  61  52 S14G23    30.04F
ELKHART          N/A     86  61  43 S8          N/A
GARDEN CITY    SUNNY     80  62  54 SE15G23   30.01F
GREAT BEND     PTSUNNY   75  63  64 MISG      30.04F
LIBERAL        SUNNY     82  66  57 SE12      30.03F
$$

KSZ066>073-081>083-090>101-012100-
SOUTHEAST KANSAS

CITY           SKY/WX    TMP DP  RH WIND       PRES   REMARKS
CHANUTE        CLOUDY    68  57  68 E9        30.13F
COFFEYVILLE    MOSUNNY   74  58  57 E8        30.10F
HUTCHINSON     MOSUNNY   77  59  53 SE14      30.08F
MEDICINE LODGE   N/A     76  59  55 SE12      30.05F
NEWTON         MOSUNNY   73  55  53 SE10G17   30.11F
PARSONS        CLOUDY    71  59  65 VRB6      30.13F
WICHITA INTL   PTSUNNY   74  59  59 SE13G20   30.08F
WICHITA JABRA  PTSUNNY   74  59  59 SE10      30.08F
WINFIELD       CLOUDY    73  57  57 E10       30.10F
$$

KSZ007>012-019>026-033>040-048>060-102>105-012100-
NORTHEAST KANSAS

CITY           SKY/WX    TMP DP  RH WIND       PRES   REMARKS
CONCORDIA      MOSUNNY   75  58  55 SE17G23   30.08F
EMPORIA        PTSUNNY   70  56  61 SE10      30.12F
LAWRENCE       CLOUDY    67  54  63 SE12      30.15S
MANHATTAN      MOSUNNY   74  57  55 SE12      30.10F
OLATHE IND     CLOUDY    64  54  69 E8        30.16F
OLATHE EXE     CLOUDY    64  55  72 E8        30.15F
SALINA         CLOUDY    75  59  57 SE15      30.08F
TOPEKA BILLARD CLOUDY    71  56  58 E8        30.13F
TOPEKA FORBES  PTSUNNY   72  55  55 SE7       30.13F
$$



USA.gov is the U.S. government's official web portal to all federal, state and local government web resources and services.